Location: Cassano d�Adda
(45.5333°N, 9.5167°E)
Time: 07:33:01
(UTC+00:00)

COSMOS 2428 - Pass Details

Date: 08 December 2019
Orbit: 844 x 858 km, 70.9° (Epoch: 25 January)

Event Time Altitude Azimuth Distance (km) Brightness Sun altitude
Rises 17:01:59 0° 219° (SW) 3,391 6.9 -14.0°
Reaches altitude 10° 17:04:29 10° 224° (SW) 2,461 6.1 -14.5°
Maximum altitude 17:10:00 53° 301° (WNW) 1,036 3.4 -15.4°
Drops below altitude 10° 17:15:34 10° 18° (NNE) 2,483 4.8 -16.3°
Enters shadow 17:16:07 - 20° (NNE) 2,681 5.0 -16.4°
